When you browse on this site, cookies collect data to enhance your experience and personalize the content and advertising you see.
Visit our Privacy Policy to learn more. By continuing to use the site, you agree to this use of cookies and data.
  • In Schweiz
  • Länderverzeichnis
  • Für 7 Tage
  • Wassertemperatur
  • Satellitenkarten
  • Wetterkarte
  • Widgets
  • user-avatar
    Anmelden

    Stündliche Wetter Xiongzhou

    Heute, 23 Juli, Dienstag

    Zeit Temperatur Niederschläge Wind Luftdruck Luftfeuchtigkeit
    00:00 +27°C° 0 mm 1 m/S 743 mmHg 88%
    01:00 +27°C° 0 mm 1 m/S 743 mmHg 90%
    02:00 +27°C° 0 mm 1 m/S 742 mmHg 92%
    03:00 +26°C° 0 mm 1 m/S 742 mmHg 93%
    04:00 +26°C° 0 mm 1 m/S 742 mmHg 93%
    05:00 +26°C° 0 mm 1 m/S 742 mmHg 93%
    06:00 +27°C° 0 mm 1 m/S 742 mmHg 89%
    07:00 +28°C° 0 mm 1 m/S 743 mmHg 85%
    08:00 +29°C° 0 mm 1 m/S 743 mmHg 81%
    09:00 +31°C° 0 mm 1 m/S 743 mmHg 75%
    10:00 +32°C° 0 mm 2 m/S 743 mmHg 68%
    11:00 +35°C° 0 mm 2 m/S 743 mmHg 62%
    12:00 +35°C° 0.4 mm 2 m/S 742 mmHg 63%
    13:00 +35°C° 0.4 mm 3 m/S 742 mmHg 64%
    14:00 +36°C° 0 mm 3 m/S 742 mmHg 63%
    15:00 +36°C° 0.3 mm 2 m/S 741 mmHg 63%
    16:00 +36°C° 0.3 mm 2 m/S 741 mmHg 62%
    17:00 +35°C° 0.3 mm 2 m/S 741 mmHg 62%
    18:00 +34°C° 0 mm 2 m/S 741 mmHg 68%
    19:00 +31°C° 0 mm 1 m/S 741 mmHg 75%
    20:00 +29°C° 0 mm 1 m/S 742 mmHg 82%
    21:00 +29°C° 0 mm 1 m/S 742 mmHg 84%
    22:00 +28°C° 0 mm 1 m/S 742 mmHg 86%
    23:00 +28°C° 0 mm 1 m/S 743 mmHg 87%

    Morgen, 24 Juli, Mittwoch

    Zeit Temperatur Niederschläge Wind Luftdruck Luftfeuchtigkeit
    00:00 +28°C° 0 mm 1 m/S 743 mmHg 89%
    01:00 +27°C° 0 mm 1 m/S 743 mmHg 90%
    02:00 +27°C° 0 mm 1 m/S 742 mmHg 91%
    03:00 +27°C° 0 mm 1 m/S 742 mmHg 92%
    04:00 +26°C° 0 mm 1 m/S 742 mmHg 93%
    05:00 +26°C° 0 mm 1 m/S 742 mmHg 93%
    06:00 +27°C° 0 mm 1 m/S 743 mmHg 89%
    07:00 +29°C° 0 mm 1 m/S 743 mmHg 84%
    08:00 +30°C° 0 mm 1 m/S 743 mmHg 79%
    09:00 +31°C° 0 mm 1 m/S 744 mmHg 73%
    10:00 +33°C° 0 mm 1 m/S 744 mmHg 66%
    11:00 +35°C° 0 mm 2 m/S 744 mmHg 59%
    12:00 +36°C° 0 mm 2 m/S 743 mmHg 57%
    13:00 +37°C° 0 mm 2 m/S 743 mmHg 54%
    14:00 +38°C° 0 mm 2 m/S 742 mmHg 51%
    15:00 +38°C° 0 mm 2 m/S 742 mmHg 53%
    16:00 +37°C° 0 mm 2 m/S 741 mmHg 55%
    17:00 +37°C° 0 mm 2 m/S 741 mmHg 58%
    18:00 +35°C° 0 mm 2 m/S 741 mmHg 66%
    19:00 +32°C° 0 mm 1 m/S 742 mmHg 74%
    20:00 +30°C° 0 mm 1 m/S 742 mmHg 83%
    21:00 +29°C° 0 mm 1 m/S 743 mmHg 84%
    22:00 +29°C° 0 mm 1 m/S 744 mmHg 86%
    23:00 +29°C° 0 mm 1 m/S 744 mmHg 87%

    übermorgen, 25 Juli, Donnerstag

    Zeit Temperatur Niederschläge Wind Luftdruck Luftfeuchtigkeit
    00:00 +28°C° 0 mm 1 m/S 744 mmHg 88%
    01:00 +28°C° 0 mm 1 m/S 744 mmHg 90%
    02:00 +28°C° 0 mm 1 m/S 744 mmHg 91%
    03:00 +27°C° 0 mm 1 m/S 744 mmHg 92%
    04:00 +27°C° 0 mm 1 m/S 744 mmHg 93%
    05:00 +27°C° 0 mm 1 m/S 744 mmHg 94%
    06:00 +28°C° 0 mm 1 m/S 744 mmHg 90%
    07:00 +29°C° 0 mm 1 m/S 744 mmHg 85%
    08:00 +30°C° 0 mm 1 m/S 745 mmHg 81%
    09:00 +32°C° 0 mm 1 m/S 745 mmHg 74%
    10:00 +34°C° 0 mm 2 m/S 745 mmHg 67%
    11:00 +36°C° 0 mm 2 m/S 745 mmHg 61%
    12:00 +36°C° 0 mm 2 m/S 744 mmHg 59%
    13:00 +37°C° 0 mm 2 m/S 743 mmHg 57%
    14:00 +38°C° 0 mm 2 m/S 742 mmHg 55%
    15:00 +37°C° 0 mm 2 m/S 742 mmHg 57%
    16:00 +37°C° 0 mm 2 m/S 742 mmHg 58%
    17:00 +37°C° 0 mm 2 m/S 741 mmHg 60%
    18:00 +35°C° 0 mm 2 m/S 742 mmHg 67%
    19:00 +32°C° 0 mm 1 m/S 742 mmHg 74%
    20:00 +30°C° 0 mm 1 m/S 742 mmHg 81%
    21:00 +30°C° 0 mm 1 m/S 743 mmHg 83%
    22:00 +29°C° 0 mm 1 m/S 743 mmHg 84%
    23:00 +29°C° 0 mm 1 m/S 744 mmHg 86%

    26 Juli, Freitag

    Zeit Temperatur Niederschläge Wind Luftdruck Luftfeuchtigkeit
    00:00 +29°C° 0 mm 1 m/S 743 mmHg 86%
    01:00 +28°C° 0 mm 1 m/S 743 mmHg 86%
    02:00 +28°C° 0 mm 1 m/S 743 mmHg 87%
    03:00 +28°C° 0 mm 1 m/S 743 mmHg 88%
    04:00 +28°C° 0 mm 1 m/S 743 mmHg 90%
    05:00 +27°C° 0 mm 1 m/S 743 mmHg 91%
    06:00 +28°C° 0 mm 1 m/S 743 mmHg 87%
    07:00 +29°C° 0 mm 1 m/S 743 mmHg 84%
    08:00 +30°C° 0 mm 1 m/S 743 mmHg 80%
    09:00 +32°C° 0 mm 2 m/S 743 mmHg 74%
    10:00 +34°C° 0 mm 2 m/S 743 mmHg 68%
    11:00 +35°C° 0 mm 2 m/S 744 mmHg 63%
    12:00 +36°C° 0 mm 2 m/S 743 mmHg 60%
    13:00 +37°C° 0 mm 3 m/S 742 mmHg 57%
    14:00 +38°C° 0 mm 3 m/S 742 mmHg 55%
    15:00 +37°C° 0 mm 3 m/S 741 mmHg 57%
    16:00 +37°C° 0 mm 3 m/S 741 mmHg 60%
    17:00 +36°C° 0 mm 3 m/S 741 mmHg 62%
    18:00 +35°C° 0 mm 2 m/S 741 mmHg 68%
    19:00 +32°C° 0 mm 2 m/S 741 mmHg 73%
    20:00 +30°C° 0 mm 1 m/S 741 mmHg 79%
    21:00 +30°C° 0 mm 1 m/S 742 mmHg 80%
    22:00 +29°C° 0 mm 1 m/S 742 mmHg 82%
    23:00 +29°C° 0 mm 1 m/S 742 mmHg 84%

    27 Juli, Samstag

    Zeit Temperatur Niederschläge Wind Luftdruck Luftfeuchtigkeit
    00:00 +28°C° 0 mm 1 m/S 742 mmHg 85%
    01:00 +28°C° 0 mm 1 m/S 742 mmHg 86%
    02:00 +28°C° 0 mm 1 m/S 742 mmHg 86%
    03:00 +28°C° 0 mm 1 m/S 742 mmHg 87%
    04:00 +28°C° 0 mm 1 m/S 742 mmHg 88%
    05:00 +27°C° 0 mm 1 m/S 742 mmHg 90%
    06:00 +28°C° 0 mm 1 m/S 743 mmHg 86%
    07:00 +29°C° 0 mm 1 m/S 743 mmHg 83%
    08:00 +30°C° 0 mm 2 m/S 743 mmHg 79%
    09:00 +32°C° 0 mm 2 m/S 743 mmHg 72%
    10:00 +34°C° 0 mm 2 m/S 744 mmHg 65%
    11:00 +36°C° 0 mm 3 m/S 744 mmHg 59%
    12:00 +37°C° 0 mm 3 m/S 743 mmHg 56%
    13:00 +38°C° 0 mm 3 m/S 743 mmHg 53%
    14:00 +38°C° 0 mm 3 m/S 742 mmHg 50%
    15:00 +38°C° 0 mm 3 m/S 742 mmHg 52%
    16:00 +38°C° 0 mm 3 m/S 742 mmHg 54%
    17:00 +37°C° 0 mm 3 m/S 741 mmHg 56%
    18:00 +35°C° 0 mm 2 m/S 742 mmHg 62%
    19:00 +32°C° 0 mm 2 m/S 742 mmHg 69%
    20:00 +31°C° 0 mm 1 m/S 743 mmHg 75%
    21:00 +30°C° 0 mm 1 m/S 743 mmHg 78%
    22:00 +29°C° 0 mm 1 m/S 743 mmHg 80%
    23:00 +29°C° 0 mm 1 m/S 744 mmHg 83%

    28 Juli, Sonntag

    Zeit Temperatur Niederschläge Wind Luftdruck Luftfeuchtigkeit
    00:00 +28°C° 0 mm 1 m/S 743 mmHg 85%
    01:00 +28°C° 0 mm 1 m/S 743 mmHg 87%
    02:00 +28°C° 0 mm 1 m/S 743 mmHg 88%
    03:00 +27°C° 0 mm 1 m/S 743 mmHg 90%
    04:00 +27°C° 0 mm 1 m/S 743 mmHg 91%
    05:00 +27°C° 0 mm 1 m/S 744 mmHg 93%
    06:00 +28°C° 0 mm 1 m/S 744 mmHg 88%
    07:00 +29°C° 0 mm 1 m/S 744 mmHg 83%
    08:00 +30°C° 0 mm 1 m/S 745 mmHg 78%
    09:00 +32°C° 0 mm 2 m/S 745 mmHg 71%
    10:00 +35°C° 0 mm 2 m/S 745 mmHg 64%
    11:00 +36°C° 0 mm 3 m/S 745 mmHg 57%
    12:00 +37°C° 0 mm 3 m/S 744 mmHg 54%
    13:00 +38°C° 0 mm 3 m/S 744 mmHg 51%
    14:00 +39°C° 0 mm 3 m/S 743 mmHg 48%
    15:00 +38°C° 0 mm 3 m/S 743 mmHg 51%
    16:00 +38°C° 0 mm 3 m/S 743 mmHg 53%
    17:00 +38°C° 0 mm 3 m/S 742 mmHg 55%
    18:00 +36°C° 0 mm 2 m/S 743 mmHg 63%
    19:00 +34°C° 0 mm 2 m/S 743 mmHg 71%
    20:00 +30°C° 0 mm 1 m/S 743 mmHg 79%
    21:00 +30°C° 0 mm 1 m/S 743 mmHg 81%
    22:00 +29°C° 0 mm 1 m/S 744 mmHg 82%
    23:00 +29°C° 0 mm 1 m/S 744 mmHg 84%
    Mehr zeigen